Pompano Beach, FL

8:55 AM EST on February 10, 2016 (GMT -0500)
Pompano Beach

Weather History for KPMP - July, 2013

Change the Weather History Date:

Friday, July 5, 2013

  Actual Average (KFLL) Record (KFLL)
Temperature  
Mean Temperature 81 °F 84 °F  
Max Temperature 86 °F 90 °F 95 °F (1949)
Min Temperature 78 °F 78 °F 69 °F (1938)
Degree Days  
Heating Degree Days 0 0  
Month to date heating degree days 0  
Since 1 June heating degree days 0  
Since 1 July heating degree days 0  
Cooling Degree Days 16 19  
Month to date cooling degree days 95  
Year to date cooling degree days 2056  
Since 1 June cooling degree days 638  
Growing Degree Days 31 (Base 50)    
Moisture  
Dew Point 77 °F    
Average Humidity 87    
Maximum Humidity 100    
Minimum Humidity 72    
Precipitation  
Precipitation 0.14 in 0.22 in 1.89 in (2010)
Month to date precipitation 1.15  
Year to date precipitation 28.80  
Snow  
Snow 0.00 in - - ()
Month to date snowfall  
Since 1 June snowfall  
Since 1 July snowfall  
Snow Depth -    
Sea Level Pressure  
Sea Level Pressure 30.11 in    
Wind  
Wind Speed 11 mph (ESE)    
Max Wind Speed 18 mph    
Max Gust Speed 30 mph    
Visibility 10 miles    
Events Rain , Thunderstorm    
T = Trace of Precipitation, MM = Missing Value Source: NWS Daily Summary

Daily Weather History Graph

Daily Weather History Graph

Search for Another Location

Airport or City:

Trip Planner

Search our weather history database for the weather conditions in past years. The results will help you decide how hot, cold, wet, or windy it might be!

Date:

Astronomy

Jul. 05, 2013 Rise Set
Actual Time 6:33 AM EDT 8:16 PM EDT
Civil Twilight 6:07 AM EDT 8:42 PM EDT
Nautical Twilight 5:35 AM EDT 9:14 PM EDT
Astronomical Twilight 5:03 AM EDT 9:46 PM EDT
Moon 4:26 AM EDT (7/5) 6:15 PM EDT (7/5)
Length of Visible Light 14h 35m
Length of Day
13h 43m
Waning Crescent, 6% of the Moon is Illuminated
Jul 5
Waning Crescent
Jul 8
New
Jul 15
First Quarter
Jul 22
Full
Jul 29
Last Quarter

Hourly Weather History & Observations

Time (EDT) Temp. Heat Index Dew Point Humidity Pressure Visibility Wind Dir Wind Speed Gust Speed Precip Events Conditions
12:53 AM 79.0 °F - 78.1 °F 97% 30.14 in 10.0 mi SSE 6.9 mph - 0.01 in Rain , Thunderstorm Light Rain
1:08 AM 78.8 °F - 78.8 °F 100% 30.14 in 10.0 mi ESE 9.2 mph - 0.01 in   Mostly Cloudy
1:18 AM 78.8 °F - 78.8 °F 100% 30.13 in 10.0 mi SE 6.9 mph - 0.01 in   Mostly Cloudy
1:35 AM 78.8 °F - 78.8 °F 100% 30.13 in 10.0 mi East 11.5 mph - 0.01 in   Overcast
1:48 AM 78.8 °F - 78.8 °F 100% 30.12 in 10.0 mi ESE 10.4 mph - 0.01 in   Mostly Cloudy
1:53 AM 79.0 °F - 77.0 °F 94% 30.12 in 10.0 mi East 9.2 mph - 0.01 in   Mostly Cloudy
2:28 AM 80.6 °F 88.1 °F 78.8 °F 94% 30.11 in 7.0 mi SSE 8.1 mph 17.3 mph 0.02 in Rain Light Rain
2:40 AM 78.8 °F - 78.8 °F 100% 30.11 in 10.0 mi Calm Calm - 0.02 in   Mostly Cloudy
2:53 AM 79.0 °F - 77.0 °F 94% 30.11 in 10.0 mi ESE 9.2 mph - 0.02 in   Scattered Clouds
3:53 AM 81.0 °F 87.3 °F 75.9 °F 85% 30.09 in 10.0 mi ESE 15.0 mph - N/A   Scattered Clouds
4:26 AM 78.8 °F - 75.2 °F 89% 30.08 in 10.0 mi ESE 18.4 mph 29.9 mph N/A   Mostly Cloudy
4:37 AM 78.8 °F - 75.2 °F 89% 30.08 in 10.0 mi SE 13.8 mph 20.7 mph N/A   Mostly Cloudy
4:53 AM 80.1 °F 85.4 °F 75.9 °F 87% 30.09 in 10.0 mi SE 9.2 mph - N/A   Scattered Clouds
5:53 AM 81.0 °F 87.3 °F 75.9 °F 85% 30.09 in 10.0 mi SE 10.4 mph 21.9 mph 0.00 in   Mostly Cloudy
6:00 AM 80.6 °F 87.1 °F 77.0 °F 89% 30.09 in 10.0 mi SE 11.5 mph - N/A   Mostly Cloudy
6:08 AM 80.6 °F 86.2 °F 75.2 °F 84% 30.08 in 10.0 mi SE 15.0 mph - N/A   Mostly Cloudy
6:53 AM 81.0 °F 86.7 °F 75.0 °F 82% 30.10 in 10.0 mi ESE 10.4 mph - N/A   Partly Cloudy
7:53 AM 80.1 °F 85.8 °F 77.0 °F 90% 30.12 in 10.0 mi East 9.2 mph - 0.00 in   Scattered Clouds
8:53 AM 82.0 °F 90.2 °F 77.0 °F 85% 30.13 in 10.0 mi ESE 17.3 mph 26.5 mph N/A   Mostly Cloudy
9:06 AM 80.6 °F 86.2 °F 75.2 °F 84% 30.12 in 10.0 mi ESE 16.1 mph 26.5 mph N/A   Mostly Cloudy
9:53 AM 82.9 °F 91.8 °F 77.0 °F 82% 30.13 in 10.0 mi ESE 17.3 mph 23.0 mph 0.00 in   Overcast
10:17 AM 84.2 °F 96.1 °F 78.8 °F 84% 30.12 in 10.0 mi ESE 16.1 mph 24.2 mph N/A   Mostly Cloudy
10:25 AM 84.2 °F 92.3 °F 75.2 °F 74% 30.13 in 10.0 mi SE 17.3 mph 25.3 mph N/A   Mostly Cloudy
10:53 AM 84.0 °F 94.8 °F 78.1 °F 82% 30.13 in 10.0 mi ESE 12.7 mph - 0.00 in Rain Light Rain
11:53 AM 84.9 °F 93.3 °F 75.0 °F 72% 30.14 in 10.0 mi SE 17.3 mph 23.0 mph 0.00 in   Mostly Cloudy
12:53 PM 84.9 °F 95.3 °F 77.0 °F 77% 30.13 in 10.0 mi ESE 16.1 mph 20.7 mph N/A   Mostly Cloudy
1:53 PM 81.0 °F 89.2 °F 79.0 °F 94% 30.13 in 10.0 mi ESE 11.5 mph - 0.08 in   Mostly Cloudy
2:53 PM 81.0 °F 88.6 °F 78.1 °F 91% 30.12 in 9.0 mi ESE 17.3 mph 21.9 mph 0.01 in Rain Light Rain
3:53 PM 82.0 °F 90.2 °F 77.0 °F 85% 30.10 in 10.0 mi ESE 16.1 mph - 0.01 in   Mostly Cloudy
4:53 PM 82.9 °F 91.8 °F 77.0 °F 82% 30.07 in 10.0 mi ESE 15.0 mph - N/A   Scattered Clouds
5:53 PM 84.0 °F 93.7 °F 77.0 °F 79% 30.07 in 10.0 mi ESE 15.0 mph - N/A   Overcast
6:53 PM 82.9 °F 91.8 °F 77.0 °F 82% 30.08 in 10.0 mi ESE 11.5 mph 20.7 mph N/A   Scattered Clouds
7:53 PM 82.0 °F 90.2 °F 77.0 °F 85% 30.09 in 10.0 mi ESE 12.7 mph - 0.00 in   Mostly Cloudy
8:53 PM 82.0 °F 89.4 °F 75.9 °F 82% 30.09 in 10.0 mi ESE 11.5 mph - N/A   Overcast
9:53 PM 82.0 °F 89.4 °F 75.9 °F 82% 30.11 in 10.0 mi ESE 13.8 mph - N/A   Partly Cloudy
10:53 PM 82.0 °F 89.4 °F 75.9 °F 82% 30.12 in 10.0 mi ESE 12.7 mph - N/A   Mostly Cloudy
11:00 PM 82.4 °F 89.5 °F 75.2 °F 79% 30.12 in 10.0 mi ESE 10.4 mph - N/A   Scattered Clouds
11:53 PM 82.0 °F 89.4 °F 75.9 °F 82% 30.13 in 10.0 mi ESE 12.7 mph 17.3 mph N/A   Mostly Cloudy